Year,Month,Day,Hour,Minute,Value (Times are PST for temperature in C)
2014,07,19,01,09,13.80
2014,07,19,01,10,13.80
2014,07,19,01,11,13.80
2014,07,19,01,12,13.80
2014,07,19,01,13,13.80
2014,07,19,01,14,13.80
2014,07,19,01,15,13.80
2014,07,19,01,16,13.80
2014,07,19,01,17,13.80
2014,07,19,01,18,13.80
2014,07,19,01,19,13.80
2014,07,19,01,20,13.80
2014,07,19,01,21,13.80
2014,07,19,01,22,13.80
2014,07,19,01,23,13.80
2014,07,19,01,24,13.80
2014,07,19,01,25,13.80
2014,07,19,01,26,13.80
2014,07,19,01,27,13.80
2014,07,19,01,28,13.80
2014,07,19,01,29,13.80
2014,07,19,01,30,13.80
2014,07,19,01,31,13.80
2014,07,19,01,32,13.80
2014,07,19,01,33,13.80
2014,07,19,01,34,13.80
2014,07,19,01,35,13.80
2014,07,19,01,36,13.80
2014,07,19,01,37,13.80
2014,07,19,01,38,13.80
2014,07,19,01,39,13.80
2014,07,19,01,40,13.80
2014,07,19,01,41,13.80
2014,07,19,01,42,13.80
2014,07,19,01,43,13.80
2014,07,19,01,44,13.80
2014,07,19,01,45,13.80
2014,07,19,01,46,13.80
2014,07,19,01,47,13.80
2014,07,19,01,48,13.80
2014,07,19,01,49,13.80
2014,07,19,01,50,13.80
2014,07,19,01,51,13.80
2014,07,19,01,52,13.80
2014,07,19,01,53,13.80
2014,07,19,01,54,13.80
2014,07,19,01,55,13.80
2014,07,19,01,56,13.80
2014,07,19,01,57,13.80
2014,07,19,01,58,13.80
2014,07,19,01,59,13.80
2014,07,19,02,00,13.80
2014,07,19,02,01,13.80
2014,07,19,02,02,13.80
2014,07,19,02,03,13.80
2014,07,19,02,04,13.80
2014,07,19,02,05,13.80
2014,07,19,02,06,13.80
2014,07,19,02,07,13.80
2014,07,19,02,08,13.80
2014,07,19,02,09,13.80
2014,07,19,02,10,13.90
2014,07,19,02,11,13.90
2014,07,19,02,12,13.90
2014,07,19,02,13,13.90
2014,07,19,02,14,13.90
2014,07,19,02,15,13.90
2014,07,19,02,16,13.90
2014,07,19,02,17,13.90
2014,07,19,02,18,13.90
2014,07,19,02,19,13.90
2014,07,19,02,20,13.90
2014,07,19,02,21,13.90
2014,07,19,02,22,13.90
2014,07,19,02,23,13.90
2014,07,19,02,24,13.90
2014,07,19,02,25,13.90
2014,07,19,02,26,13.90
2014,07,19,02,27,13.90
2014,07,19,02,28,13.90
2014,07,19,02,29,13.90
2014,07,19,02,30,13.90
2014,07,19,02,31,13.90
2014,07,19,02,32,13.90
2014,07,19,02,33,13.90
2014,07,19,02,34,13.90
2014,07,19,02,35,13.90
2014,07,19,02,36,13.90
2014,07,19,02,37,13.90
2014,07,19,02,38,13.90
2014,07,19,02,39,13.90
2014,07,19,02,40,13.90
2014,07,19,02,41,13.90
2014,07,19,02,42,13.90
2014,07,19,02,43,13.90
2014,07,19,02,44,13.90
2014,07,19,02,45,13.90
2014,07,19,02,46,13.90
2014,07,19,02,47,13.90
2014,07,19,02,48,13.90
2014,07,19,02,49,13.90
2014,07,19,02,50,13.90
2014,07,19,02,51,13.90
2014,07,19,02,52,13.90
2014,07,19,02,53,13.90
2014,07,19,02,54,13.90
2014,07,19,02,55,13.90
2014,07,19,02,56,13.90
2014,07,19,02,57,13.90
2014,07,19,02,58,13.90
2014,07,19,02,59,13.90
2014,07,19,03,00,13.90
2014,07,19,03,01,13.90
2014,07,19,03,02,13.90
2014,07,19,03,03,13.90
2014,07,19,03,04,13.90
2014,07,19,03,05,13.90
2014,07,19,03,06,13.90
2014,07,19,03,07,13.90
2014,07,19,03,08,13.90
2014,07,19,03,09,13.90
2014,07,19,03,10,13.50
2014,07,19,03,11,13.50
2014,07,19,03,12,13.50
2014,07,19,03,13,13.50
2014,07,19,03,14,13.50
2014,07,19,03,15,13.50
2014,07,19,03,16,13.50
2014,07,19,03,17,13.50
2014,07,19,03,18,13.50
2014,07,19,03,19,13.50
2014,07,19,03,20,13.50
2014,07,19,03,21,13.50
2014,07,19,03,22,13.50
2014,07,19,03,23,13.50
2014,07,19,03,24,13.50
2014,07,19,03,25,13.50
2014,07,19,03,26,13.50
2014,07,19,03,27,13.50
2014,07,19,03,28,13.50
2014,07,19,03,29,13.50
2014,07,19,03,30,13.50
2014,07,19,03,31,13.50
2014,07,19,03,32,13.50
2014,07,19,03,33,13.50
2014,07,19,03,34,13.50
2014,07,19,03,35,13.50
2014,07,19,03,36,13.50
2014,07,19,03,37,13.50
2014,07,19,03,38,13.50
2014,07,19,03,39,13.50
2014,07,19,03,40,13.50
2014,07,19,03,41,13.50
2014,07,19,03,42,13.50
2014,07,19,03,43,13.50
2014,07,19,03,44,13.50
2014,07,19,03,45,13.50
2014,07,19,03,46,13.50
2014,07,19,03,47,13.50
2014,07,19,03,48,13.50
2014,07,19,03,49,13.50
2014,07,19,03,50,13.50
2014,07,19,03,51,13.50
2014,07,19,03,52,13.50
2014,07,19,03,53,13.50
2014,07,19,03,54,13.50
2014,07,19,03,55,13.50
2014,07,19,03,56,13.50
2014,07,19,03,57,13.50
2014,07,19,03,58,13.50
2014,07,19,03,59,13.50
2014,07,19,04,00,13.50
2014,07,19,04,01,13.50
2014,07,19,04,02,13.50
2014,07,19,04,03,13.50
2014,07,19,04,04,13.50
2014,07,19,04,05,13.50
2014,07,19,04,06,13.50
2014,07,19,04,07,13.50
2014,07,19,04,08,13.50
2014,07,19,04,09,13.50
2014,07,19,04,10,15.30
2014,07,19,04,11,15.30
2014,07,19,04,12,15.30
2014,07,19,04,13,15.30
2014,07,19,04,14,15.30
2014,07,19,04,15,15.30
2014,07,19,04,16,15.30
2014,07,19,04,17,15.30
2014,07,19,04,18,15.30
2014,07,19,04,19,15.30
2014,07,19,04,20,15.30
2014,07,19,04,21,15.30
2014,07,19,04,22,15.30
2014,07,19,04,23,15.30
2014,07,19,04,24,15.30
2014,07,19,04,25,15.30
2014,07,19,04,26,15.30
2014,07,19,04,27,15.30
2014,07,19,04,28,15.30
2014,07,19,04,29,15.30
2014,07,19,04,30,15.30
2014,07,19,04,31,15.30
2014,07,19,04,32,15.30
2014,07,19,04,33,15.30
2014,07,19,04,34,15.30
2014,07,19,04,35,15.30
2014,07,19,04,36,15.30
2014,07,19,04,37,15.30
2014,07,19,04,38,15.30
2014,07,19,04,39,15.30
2014,07,19,04,40,15.30
2014,07,19,04,41,15.30
2014,07,19,04,42,15.30
2014,07,19,04,43,15.30
2014,07,19,04,44,15.30
2014,07,19,04,45,15.30
2014,07,19,04,46,15.30
2014,07,19,04,47,15.30
2014,07,19,04,48,15.30
2014,07,19,04,49,15.30
2014,07,19,04,50,15.30
2014,07,19,04,51,15.30
2014,07,19,04,52,15.30
2014,07,19,04,53,15.30
2014,07,19,04,54,15.30
2014,07,19,04,55,15.30
2014,07,19,04,56,15.30
2014,07,19,04,57,15.30
2014,07,19,04,58,15.30
2014,07,19,04,59,15.30
2014,07,19,05,00,15.30
2014,07,19,05,01,15.30
2014,07,19,05,02,15.30
2014,07,19,05,03,15.30
2014,07,19,05,04,15.30
2014,07,19,05,05,15.30
2014,07,19,05,06,15.30
2014,07,19,05,07,15.30
2014,07,19,05,08,15.30
2014,07,19,05,09,15.30
2014,07,19,05,10,15.30
2014,07,19,05,11,13.20
2014,07,19,05,12,13.20
2014,07,19,05,13,13.20
2014,07,19,05,14,13.20
2014,07,19,05,15,13.20
2014,07,19,05,16,13.20
2014,07,19,05,17,13.20
2014,07,19,05,18,13.20
2014,07,19,05,19,13.20
2014,07,19,05,20,13.20
2014,07,19,05,21,13.20
2014,07,19,05,22,13.20
2014,07,19,05,23,13.20
2014,07,19,05,24,13.20
2014,07,19,05,25,13.20
2014,07,19,05,26,13.20
2014,07,19,05,27,13.20
2014,07,19,05,28,13.20
2014,07,19,05,29,13.20
2014,07,19,05,30,13.20
2014,07,19,05,31,13.20
2014,07,19,05,32,13.20
2014,07,19,05,33,13.20
2014,07,19,05,34,13.20
2014,07,19,05,35,13.20
2014,07,19,05,36,13.20
2014,07,19,05,37,13.20
2014,07,19,05,38,13.20
2014,07,19,05,39,13.20
2014,07,19,05,40,13.20
2014,07,19,05,41,13.20
2014,07,19,05,42,13.20
2014,07,19,05,43,13.20
2014,07,19,05,44,13.20
2014,07,19,05,45,13.20
2014,07,19,05,46,13.20
2014,07,19,05,47,13.20
2014,07,19,05,48,13.20
2014,07,19,05,49,13.20
2014,07,19,05,50,13.20
2014,07,19,05,51,13.20
2014,07,19,05,52,13.20
2014,07,19,05,53,13.20
2014,07,19,05,54,13.20
2014,07,19,05,55,13.20
2014,07,19,05,56,13.20
2014,07,19,05,57,13.20
2014,07,19,05,58,13.20
2014,07,19,05,59,13.20
2014,07,19,06,11,12.80
2014,07,19,06,12,12.80
2014,07,19,06,13,12.80
2014,07,19,06,14,12.80
2014,07,19,06,15,12.80
2014,07,19,06,16,12.80
2014,07,19,06,17,12.80
2014,07,19,06,18,12.80
2014,07,19,06,19,12.80
2014,07,19,06,20,12.80
2014,07,19,06,21,12.80
2014,07,19,06,22,12.80
2014,07,19,06,23,12.80
2014,07,19,06,24,12.80
2014,07,19,06,25,12.80
2014,07,19,06,26,12.80
2014,07,19,06,27,12.80
2014,07,19,06,28,12.80
2014,07,19,06,29,12.80
2014,07,19,06,30,12.80
2014,07,19,06,31,12.80
2014,07,19,06,32,12.80
2014,07,19,06,33,12.80
2014,07,19,06,34,12.80
2014,07,19,06,35,12.80
2014,07,19,06,36,12.80
2014,07,19,06,37,12.80
2014,07,19,06,38,12.80
2014,07,19,06,39,12.80
2014,07,19,06,40,12.80
2014,07,19,06,41,12.80
2014,07,19,06,42,12.80
2014,07,19,06,43,12.80
2014,07,19,06,44,12.80
2014,07,19,06,45,12.80
2014,07,19,06,46,12.80
2014,07,19,06,47,12.80
2014,07,19,06,48,12.80
2014,07,19,06,49,12.80
2014,07,19,06,50,12.80
2014,07,19,06,51,12.80
2014,07,19,06,52,12.80
2014,07,19,06,53,12.80
2014,07,19,06,54,12.80
2014,07,19,06,55,12.80
2014,07,19,06,56,12.80
2014,07,19,06,57,12.80
2014,07,19,06,58,12.80
2014,07,19,06,59,12.80
2014,07,19,07,11,12.70
2014,07,19,07,12,12.70
2014,07,19,07,13,12.70
2014,07,19,07,14,12.70
2014,07,19,07,15,12.70
2014,07,19,07,16,12.70
2014,07,19,07,17,12.70
2014,07,19,07,18,12.70
2014,07,19,07,19,12.70
2014,07,19,07,20,12.70
2014,07,19,07,21,12.70
2014,07,19,07,22,12.70
2014,07,19,07,23,12.70
2014,07,19,07,24,12.70
2014,07,19,07,25,12.70
2014,07,19,07,26,12.70
2014,07,19,07,27,12.70
2014,07,19,07,28,12.70
2014,07,19,07,29,12.70
2014,07,19,07,30,12.70
2014,07,19,07,31,12.70
2014,07,19,07,32,12.70
2014,07,19,07,33,12.70
2014,07,19,07,34,12.70
2014,07,19,07,35,12.70
2014,07,19,07,36,12.70
2014,07,19,07,37,12.70
2014,07,19,07,38,12.70
2014,07,19,07,39,12.70
2014,07,19,07,40,12.70
2014,07,19,07,41,12.70
2014,07,19,07,42,12.70
2014,07,19,07,43,12.70
2014,07,19,07,44,12.70
2014,07,19,07,45,12.70
2014,07,19,07,46,12.70
2014,07,19,07,47,12.70
2014,07,19,07,48,12.70
2014,07,19,07,49,12.70
2014,07,19,07,50,12.70
2014,07,19,07,51,12.70
2014,07,19,07,52,12.70
2014,07,19,07,53,12.70
2014,07,19,07,54,12.70
2014,07,19,07,55,12.70
2014,07,19,07,56,12.70
2014,07,19,07,57,12.70
2014,07,19,07,58,12.70
2014,07,19,07,59,12.70
2014,07,19,08,12,12.40
2014,07,19,08,13,12.40
2014,07,19,08,14,12.40
2014,07,19,08,15,12.40
2014,07,19,08,16,12.40
2014,07,19,08,17,12.40
2014,07,19,08,18,12.40
2014,07,19,08,19,12.40
2014,07,19,08,20,12.40
2014,07,19,08,21,12.40
2014,07,19,08,22,12.40
2014,07,19,08,23,12.40
2014,07,19,08,24,12.40
2014,07,19,08,25,12.40
2014,07,19,08,26,12.40
2014,07,19,08,27,12.40
2014,07,19,08,28,12.40
2014,07,19,08,29,12.40
2014,07,19,08,30,12.40
2014,07,19,08,31,12.40
2014,07,19,08,32,12.40
2014,07,19,08,33,12.40
2014,07,19,08,34,12.40
2014,07,19,08,35,12.40
2014,07,19,08,36,12.40
2014,07,19,08,37,12.40
2014,07,19,08,38,12.40
2014,07,19,08,39,12.40
2014,07,19,08,40,12.40
2014,07,19,08,41,12.40
2014,07,19,08,42,12.40
2014,07,19,08,43,12.40
2014,07,19,08,44,12.40
2014,07,19,08,45,12.40
2014,07,19,08,46,12.40
2014,07,19,08,47,12.40
2014,07,19,08,48,12.40
2014,07,19,08,49,12.40
2014,07,19,08,50,12.40
2014,07,19,08,51,12.40
2014,07,19,08,52,12.40
2014,07,19,08,53,12.40
2014,07,19,08,54,12.40
2014,07,19,08,55,12.40
2014,07,19,08,56,12.40
2014,07,19,08,57,12.40
2014,07,19,08,58,12.40
2014,07,19,08,59,12.40
2014,07,19,09,13,12.90
2014,07,19,09,14,12.90
2014,07,19,09,15,12.90
2014,07,19,09,16,12.90
2014,07,19,09,17,12.90
2014,07,19,09,18,12.90
2014,07,19,09,19,12.90
2014,07,19,09,20,12.90
2014,07,19,09,21,12.90
2014,07,19,09,22,12.90
2014,07,19,09,23,12.90
2014,07,19,09,24,12.90
2014,07,19,09,25,12.90
2014,07,19,09,26,12.90
2014,07,19,09,27,12.90
2014,07,19,09,28,12.90
2014,07,19,09,29,12.90
2014,07,19,09,30,12.90
2014,07,19,09,31,12.90
2014,07,19,09,32,12.90
2014,07,19,09,33,12.90
2014,07,19,09,34,12.90
2014,07,19,09,35,12.90
2014,07,19,09,36,12.90
2014,07,19,09,37,12.90
2014,07,19,09,38,12.90
2014,07,19,09,39,12.90
2014,07,19,09,40,12.90
2014,07,19,09,41,12.90
2014,07,19,09,42,12.90
2014,07,19,09,43,12.90
2014,07,19,09,44,12.90
2014,07,19,09,45,12.90
2014,07,19,09,46,12.90
2014,07,19,09,47,12.90
2014,07,19,09,48,12.90
2014,07,19,09,49,12.90
2014,07,19,09,50,12.90
2014,07,19,09,51,12.90
2014,07,19,09,52,12.90
2014,07,19,09,53,12.90
2014,07,19,09,54,12.90
2014,07,19,09,55,12.90
2014,07,19,09,56,12.90
2014,07,19,09,57,12.90
2014,07,19,09,58,12.90
2014,07,19,09,59,12.90
2014,07,19,10,13,14.90
2014,07,19,10,14,14.90
2014,07,19,10,15,14.90
2014,07,19,10,16,14.90
2014,07,19,10,17,14.90
2014,07,19,10,18,14.90
2014,07,19,10,19,14.90
2014,07,19,10,20,14.90
2014,07,19,10,21,14.90
2014,07,19,10,22,14.90
2014,07,19,10,23,14.90
2014,07,19,10,24,14.90
2014,07,19,10,25,14.90
2014,07,19,10,26,14.90
2014,07,19,10,27,14.90
2014,07,19,10,28,14.90
2014,07,19,10,29,14.90
2014,07,19,10,30,14.90
2014,07,19,10,31,14.90
2014,07,19,10,32,14.90
2014,07,19,10,33,14.90
2014,07,19,10,34,14.90
2014,07,19,10,35,14.90
2014,07,19,10,36,14.90
2014,07,19,10,37,14.90
2014,07,19,10,38,14.90
2014,07,19,10,39,14.90
2014,07,19,10,40,14.90
2014,07,19,10,41,14.90
2014,07,19,10,42,14.90
2014,07,19,10,43,14.90
2014,07,19,10,44,14.90
2014,07,19,10,45,14.90
2014,07,19,10,46,14.90
2014,07,19,10,47,14.90
2014,07,19,10,48,14.90
2014,07,19,10,49,14.90
2014,07,19,10,50,14.90
2014,07,19,10,51,14.90
2014,07,19,10,52,14.90
2014,07,19,10,53,14.90
2014,07,19,10,54,14.90
2014,07,19,10,55,14.90
2014,07,19,10,56,14.90
2014,07,19,10,57,14.90
2014,07,19,10,58,14.90
2014,07,19,10,59,14.90
2014,07,19,11,00,14.90
2014,07,19,11,01,14.90
2014,07,19,11,02,14.90
2014,07,19,11,03,14.90
2014,07,19,11,04,14.90
2014,07,19,11,05,14.90
2014,07,19,11,06,14.90
2014,07,19,11,07,14.90
2014,07,19,11,08,14.90
2014,07,19,11,09,14.90
2014,07,19,11,10,14.90
2014,07,19,11,11,14.90
2014,07,19,11,12,14.90
2014,07,19,11,13,16.40
2014,07,19,11,14,16.40
2014,07,19,11,15,16.40
2014,07,19,11,16,16.40
2014,07,19,11,17,16.40
2014,07,19,11,18,16.40
2014,07,19,11,19,16.40
2014,07,19,11,20,16.40
2014,07,19,11,21,16.40
2014,07,19,11,22,16.40
2014,07,19,11,23,16.40
2014,07,19,11,24,16.40
2014,07,19,11,25,16.40
2014,07,19,11,26,16.40
2014,07,19,11,27,16.40
2014,07,19,11,28,16.40
2014,07,19,11,29,16.40
2014,07,19,11,30,16.40
2014,07,19,11,31,16.40
2014,07,19,11,32,16.40
2014,07,19,11,33,16.40
2014,07,19,11,34,16.40
2014,07,19,11,35,16.40
2014,07,19,11,36,16.40
2014,07,19,11,37,16.40
2014,07,19,11,38,16.40
2014,07,19,11,39,16.40
2014,07,19,11,40,16.40
2014,07,19,11,41,16.40
2014,07,19,11,42,16.40
2014,07,19,11,43,16.40
2014,07,19,11,44,16.40
2014,07,19,11,45,16.40
2014,07,19,11,46,16.40
2014,07,19,11,47,16.40
2014,07,19,11,48,16.40
2014,07,19,11,49,16.40
2014,07,19,11,50,16.40
2014,07,19,11,51,16.40
2014,07,19,11,52,16.40
2014,07,19,11,53,16.40
2014,07,19,11,54,16.40
2014,07,19,11,55,16.40
2014,07,19,11,56,16.40
2014,07,19,11,57,16.40
2014,07,19,11,58,16.40
2014,07,19,11,59,16.40
2014,07,19,12,00,16.40
2014,07,19,12,01,16.40
2014,07,19,12,02,16.40
2014,07,19,12,03,16.40
2014,07,19,12,04,16.40
2014,07,19,12,05,16.40
2014,07,19,12,06,16.40
2014,07,19,12,07,16.40
2014,07,19,12,08,16.40
2014,07,19,12,09,16.40
2014,07,19,12,10,16.40
2014,07,19,12,11,16.40
2014,07,19,12,12,16.40
2014,07,19,12,13,16.90
2014,07,19,12,14,16.90
2014,07,19,12,15,16.90
2014,07,19,12,16,16.90
2014,07,19,12,17,16.90
2014,07,19,12,18,16.90
2014,07,19,12,19,16.90
2014,07,19,12,20,16.90
2014,07,19,12,21,16.90
2014,07,19,12,22,16.90
2014,07,19,12,23,16.90
2014,07,19,12,24,16.90
2014,07,19,12,25,16.90
2014,07,19,12,26,16.90
2014,07,19,12,27,16.90
2014,07,19,12,28,16.90
2014,07,19,12,29,16.90
2014,07,19,12,30,16.90
2014,07,19,12,31,16.90
2014,07,19,12,32,16.90
2014,07,19,12,33,16.90
2014,07,19,12,34,16.90
2014,07,19,12,35,16.90
2014,07,19,12,36,16.90
2014,07,19,12,37,16.90
2014,07,19,12,38,16.90
2014,07,19,12,39,16.90
2014,07,19,12,40,16.90
2014,07,19,12,41,16.90
2014,07,19,12,42,16.90
2014,07,19,12,43,16.90
2014,07,19,12,44,16.90
2014,07,19,12,45,16.90
2014,07,19,12,46,16.90
2014,07,19,12,47,16.90
2014,07,19,12,48,16.90
2014,07,19,12,49,16.90
2014,07,19,12,50,16.90
2014,07,19,12,51,16.90
2014,07,19,12,52,16.90
2014,07,19,12,53,16.90
2014,07,19,12,54,16.90
2014,07,19,12,55,16.90
2014,07,19,12,56,16.90
2014,07,19,12,57,16.90
2014,07,19,12,58,16.90
2014,07,19,12,59,16.90
2014,07,19,13,00,16.90
2014,07,19,13,01,16.90
2014,07,19,13,02,16.90
2014,07,19,13,03,16.90
2014,07,19,13,04,16.90
2014,07,19,13,05,16.90
2014,07,19,13,06,16.90
2014,07,19,13,07,16.90
2014,07,19,13,08,16.90
2014,07,19,13,09,16.90
2014,07,19,13,10,16.90
2014,07,19,13,11,16.90
2014,07,19,13,12,16.90
2014,07,19,13,13,16.90
2014,07,19,13,14,16.80
2014,07,19,13,15,16.80
2014,07,19,13,16,16.80
2014,07,19,13,17,16.80
2014,07,19,13,18,16.80
2014,07,19,13,19,16.80
2014,07,19,13,20,16.80
2014,07,19,13,21,16.80
2014,07,19,13,22,16.80
2014,07,19,13,23,16.80
2014,07,19,13,24,16.80
2014,07,19,13,25,16.80
2014,07,19,13,26,16.80
2014,07,19,13,27,16.80
2014,07,19,13,28,16.80
2014,07,19,13,29,16.80
2014,07,19,13,30,16.80
2014,07,19,13,31,16.80
2014,07,19,13,32,16.80
2014,07,19,13,33,16.80
2014,07,19,13,34,16.80
2014,07,19,13,35,16.80
2014,07,19,13,36,16.80
2014,07,19,13,37,16.80
2014,07,19,13,38,16.80
2014,07,19,13,39,16.80
2014,07,19,13,40,16.80
2014,07,19,13,41,16.80
2014,07,19,13,42,16.80
2014,07,19,13,43,16.80
2014,07,19,13,44,16.80
2014,07,19,13,45,16.80
2014,07,19,13,46,16.80
2014,07,19,13,47,16.80
2014,07,19,13,48,16.80
2014,07,19,13,49,16.80
2014,07,19,13,50,16.80
2014,07,19,13,51,16.80
2014,07,19,13,52,16.80
2014,07,19,13,53,16.80
2014,07,19,13,54,16.80
2014,07,19,13,55,16.80
2014,07,19,13,56,16.80
2014,07,19,13,57,16.80
2014,07,19,13,58,16.80
2014,07,19,13,59,16.80
2014,07,19,14,00,16.80
2014,07,19,14,01,16.80
2014,07,19,14,02,16.80
2014,07,19,14,03,16.80
2014,07,19,14,04,16.80
2014,07,19,14,05,16.80
2014,07,19,14,06,16.80
2014,07,19,14,07,16.80
2014,07,19,14,08,16.80
2014,07,19,14,09,16.80
2014,07,19,14,10,16.80
2014,07,19,14,11,16.80
2014,07,19,14,12,16.80
2014,07,19,14,13,16.80
2014,07,19,14,14,17.30
2014,07,19,14,15,17.30
2014,07,19,14,16,17.30
2014,07,19,14,17,17.30
2014,07,19,14,18,17.30
2014,07,19,14,19,17.30
2014,07,19,14,20,17.30
2014,07,19,14,21,17.30
2014,07,19,14,22,17.30
2014,07,19,14,23,17.30
2014,07,19,14,24,17.30
2014,07,19,14,25,17.30
2014,07,19,14,26,17.30
2014,07,19,14,27,17.30
2014,07,19,14,28,17.30
2014,07,19,14,29,17.30
2014,07,19,14,30,17.30
2014,07,19,14,31,17.30
2014,07,19,14,32,17.30
2014,07,19,14,33,17.30
2014,07,19,14,34,17.30
2014,07,19,14,35,17.30
2014,07,19,14,36,17.30
2014,07,19,14,37,17.30
2014,07,19,14,38,17.30
2014,07,19,14,39,17.30
2014,07,19,14,40,17.30
2014,07,19,14,41,17.30
2014,07,19,14,42,17.30
2014,07,19,14,43,17.30
2014,07,19,14,44,17.30
2014,07,19,14,45,17.30
2014,07,19,14,46,17.30
2014,07,19,14,47,17.30
2014,07,19,14,48,17.30
2014,07,19,14,49,17.30
2014,07,19,14,50,17.30
2014,07,19,14,51,17.30
2014,07,19,14,52,17.30
2014,07,19,14,53,17.30
2014,07,19,14,54,17.30
2014,07,19,14,55,17.30
2014,07,19,14,56,17.30
2014,07,19,14,57,17.30
2014,07,19,14,58,17.30
2014,07,19,14,59,17.30
2014,07,19,15,00,17.30
2014,07,19,15,01,17.30
2014,07,19,15,02,17.30
2014,07,19,15,03,17.30
2014,07,19,15,04,17.30
2014,07,19,15,05,17.30
2014,07,19,15,06,17.30
2014,07,19,15,07,17.30
2014,07,19,15,08,17.30
2014,07,19,15,09,17.30
2014,07,19,15,10,17.30
2014,07,19,15,11,17.30
2014,07,19,15,12,17.30
2014,07,19,15,13,17.30
2014,07,19,15,14,17.30
2014,07,19,15,15,17.60
2014,07,19,15,16,17.60
2014,07,19,15,17,17.60
2014,07,19,15,18,17.60
2014,07,19,15,19,17.60
2014,07,19,15,20,17.60
2014,07,19,15,21,17.60
2014,07,19,15,22,17.60
2014,07,19,15,23,17.60
2014,07,19,15,24,17.60
2014,07,19,15,25,17.60
2014,07,19,15,26,17.60
2014,07,19,15,27,17.60
2014,07,19,15,28,17.60
2014,07,19,15,29,17.60
2014,07,19,15,30,17.60
2014,07,19,15,31,17.60
2014,07,19,15,32,17.60
2014,07,19,15,33,17.60
2014,07,19,15,34,17.60
2014,07,19,15,35,17.60
2014,07,19,15,36,17.60
2014,07,19,15,37,17.60
2014,07,19,15,38,17.60
2014,07,19,15,39,17.60
2014,07,19,15,40,17.60
2014,07,19,15,41,17.60
2014,07,19,15,42,17.60
2014,07,19,15,43,17.60
2014,07,19,15,44,17.60
2014,07,19,15,45,17.60
2014,07,19,15,46,17.60
2014,07,19,15,47,17.60
2014,07,19,15,48,17.60
2014,07,19,15,49,17.60
2014,07,19,15,50,17.60
2014,07,19,15,51,17.60
2014,07,19,15,52,17.60
2014,07,19,15,53,17.60
2014,07,19,15,54,17.60
2014,07,19,15,55,17.60
2014,07,19,15,56,17.60
2014,07,19,15,57,17.60
2014,07,19,15,58,17.60
2014,07,19,15,59,17.60
2014,07,19,16,00,17.60
2014,07,19,16,01,17.60
2014,07,19,16,02,17.60
2014,07,19,16,03,17.60
2014,07,19,16,04,17.60
2014,07,19,16,05,17.60
2014,07,19,16,06,17.60
2014,07,19,16,07,17.60
2014,07,19,16,08,17.60
2014,07,19,16,09,17.60
2014,07,19,16,10,17.60
2014,07,19,16,11,17.60
2014,07,19,16,12,17.60
2014,07,19,16,13,17.60
2014,07,19,16,14,17.60
2014,07,19,16,15,17.80
2014,07,19,16,16,17.80
2014,07,19,16,17,17.80
2014,07,19,16,18,17.80
2014,07,19,16,19,17.80
2014,07,19,16,20,17.80
2014,07,19,16,21,17.80
2014,07,19,16,22,17.80
2014,07,19,16,23,17.80
2014,07,19,16,24,17.80
2014,07,19,16,25,17.80
2014,07,19,16,26,17.80
2014,07,19,16,27,17.80
2014,07,19,16,28,17.80
2014,07,19,16,29,17.80
2014,07,19,16,30,17.80
2014,07,19,16,31,17.80
2014,07,19,16,32,17.80
2014,07,19,16,33,17.80
2014,07,19,16,34,17.80
2014,07,19,16,35,17.80
2014,07,19,16,36,17.80
2014,07,19,16,37,17.80
2014,07,19,16,38,17.80
2014,07,19,16,39,17.80
2014,07,19,16,40,17.80
2014,07,19,16,41,17.80
2014,07,19,16,42,17.80
2014,07,19,16,43,17.80
2014,07,19,16,44,17.80
2014,07,19,16,45,17.80
2014,07,19,16,46,17.80
2014,07,19,16,47,17.80
2014,07,19,16,48,17.80
2014,07,19,16,49,17.80
2014,07,19,16,50,17.80
2014,07,19,16,51,17.80
2014,07,19,16,52,17.80
2014,07,19,16,53,17.80
2014,07,19,16,54,17.80
2014,07,19,16,55,17.80
2014,07,19,16,56,17.80
2014,07,19,16,57,17.80
2014,07,19,16,58,17.80
2014,07,19,16,59,17.80
2014,07,19,17,00,17.80
2014,07,19,17,01,17.80
2014,07,19,17,02,17.80
2014,07,19,17,03,17.80
2014,07,19,17,04,17.80
2014,07,19,17,05,17.80
2014,07,19,17,06,17.80
2014,07,19,17,07,17.80
2014,07,19,17,08,17.80
2014,07,19,17,09,17.80
2014,07,19,17,10,17.80
2014,07,19,17,11,17.80
2014,07,19,17,12,17.80
2014,07,19,17,13,17.80
2014,07,19,17,14,17.80
2014,07,19,17,15,17.80
2014,07,19,17,16,18.10
2014,07,19,17,17,18.10
2014,07,19,17,18,18.10
2014,07,19,17,19,18.10
2014,07,19,17,20,18.10
2014,07,19,17,21,18.10
2014,07,19,17,22,18.10
2014,07,19,17,23,18.10
2014,07,19,17,24,18.10
2014,07,19,17,25,18.10
2014,07,19,17,26,18.10
2014,07,19,17,27,18.10
2014,07,19,17,28,18.10
2014,07,19,17,29,18.10
2014,07,19,17,30,18.10
2014,07,19,17,31,18.10
2014,07,19,17,32,18.10
2014,07,19,17,33,18.10
2014,07,19,17,34,18.10
2014,07,19,17,35,18.10
2014,07,19,17,36,18.10
2014,07,19,17,37,18.10
2014,07,19,17,38,18.10
2014,07,19,17,39,18.10
2014,07,19,17,40,18.10
2014,07,19,17,41,18.10
2014,07,19,17,42,18.10
2014,07,19,17,43,18.10
2014,07,19,17,44,18.10
2014,07,19,17,45,18.10
2014,07,19,17,46,18.10
2014,07,19,17,47,18.10
2014,07,19,17,48,18.10
2014,07,19,17,49,18.10
2014,07,19,17,50,18.10
2014,07,19,17,51,18.10
2014,07,19,17,52,18.10
2014,07,19,17,53,18.10
2014,07,19,17,54,18.10
2014,07,19,17,55,18.10
2014,07,19,17,56,18.10
2014,07,19,17,57,18.10
2014,07,19,17,58,18.10
2014,07,19,17,59,18.10
2014,07,19,18,00,18.10
2014,07,19,18,01,18.10
2014,07,19,18,02,18.10
2014,07,19,18,03,18.10
2014,07,19,18,04,18.10
2014,07,19,18,05,18.10
2014,07,19,18,06,18.10
2014,07,19,18,07,18.10
2014,07,19,18,08,18.10
2014,07,19,18,09,18.10
2014,07,19,18,10,18.10
2014,07,19,18,11,18.10
2014,07,19,18,12,18.10
2014,07,19,18,13,18.10
2014,07,19,18,14,18.10
2014,07,19,18,15,18.10
2014,07,19,18,16,18.10
2014,07,19,18,17,17.60
2014,07,19,18,18,17.60
2014,07,19,18,19,17.60
2014,07,19,18,20,17.60
2014,07,19,18,21,17.60
2014,07,19,18,22,17.60
2014,07,19,18,23,17.60
2014,07,19,18,24,17.60
2014,07,19,18,25,17.60
2014,07,19,18,26,17.60
2014,07,19,18,27,17.60
2014,07,19,18,28,17.60
2014,07,19,18,29,17.60
2014,07,19,18,30,17.60
2014,07,19,18,31,17.60
2014,07,19,18,32,17.60
2014,07,19,18,33,17.60
2014,07,19,18,34,17.60
2014,07,19,18,35,17.60
2014,07,19,18,36,17.60
2014,07,19,18,37,17.60
2014,07,19,18,38,17.60
2014,07,19,18,39,17.60
2014,07,19,18,40,17.60
2014,07,19,18,41,17.60
2014,07,19,18,42,17.60
2014,07,19,18,43,17.60
2014,07,19,18,44,17.60
2014,07,19,18,45,17.60
2014,07,19,18,46,17.60
2014,07,19,18,47,17.60
2014,07,19,18,48,17.60
2014,07,19,18,49,17.60
2014,07,19,18,50,17.60
2014,07,19,18,51,17.60
2014,07,19,18,52,17.60
2014,07,19,18,53,17.60
2014,07,19,18,54,17.60
2014,07,19,18,55,17.60
2014,07,19,18,56,17.60
2014,07,19,18,57,17.60
2014,07,19,18,58,17.60
2014,07,19,18,59,17.60
2014,07,19,19,00,17.60
2014,07,19,19,01,17.60
2014,07,19,19,02,17.60
2014,07,19,19,03,17.60
2014,07,19,19,04,17.60
2014,07,19,19,05,17.60
2014,07,19,19,06,17.60
2014,07,19,19,07,17.60
2014,07,19,19,08,17.60
2014,07,19,19,09,17.60
2014,07,19,19,10,17.60
2014,07,19,19,11,17.60
2014,07,19,19,12,17.60
2014,07,19,19,13,17.60
2014,07,19,19,14,17.60
2014,07,19,19,15,17.60
2014,07,19,19,16,17.60
2014,07,19,19,17,16.20
2014,07,19,19,18,16.20
2014,07,19,19,19,16.20
2014,07,19,19,20,16.20
2014,07,19,19,21,16.20
2014,07,19,19,22,16.20
2014,07,19,19,23,16.20
2014,07,19,19,24,16.20
2014,07,19,19,25,16.20
2014,07,19,19,26,16.20
2014,07,19,19,27,16.20
2014,07,19,19,28,16.20